Location: Carnières
(50.1682°N, 3.3474°E)
Time: 21:43:56
(UTC+00:00)

SL-16 R/B - Pass Details

Date: 11 August 2024
Orbit: 842 x 845 km, 71.0° (Epoch: 10 September)

Event Time Altitude Azimuth Distance (km) Brightness Sun altitude
Exits shadow 02:24:24 - 276° (W) 2,905 4.7 -16.6°
Reaches altitude 10° 02:26:07 10° 288° (WNW) 2,470 4.4 -16.4°
Maximum altitude 02:29:42 17° 328° (NNW) 2,031 4.4 -16.1°
Drops below altitude 10° 02:33:18 10° 8° (N) 2,477 5.5 -15.7°
Sets 02:36:43 0° 28° (NNE) 3,416 7.0 -15.3°
